Year,Month,Day,Hour,Minute,Value (Times are PST for temperature in C)
2012,08,05,00,00,27.40
2012,08,05,00,01,27.40
2012,08,05,00,02,27.40
2012,08,05,00,03,27.30
2012,08,05,00,04,27.30
2012,08,05,00,05,27.30
2012,08,05,00,06,27.30
2012,08,05,00,07,27.20
2012,08,05,00,08,27.20
2012,08,05,00,09,27.20
2012,08,05,00,10,27.10
2012,08,05,00,11,27.10
2012,08,05,00,12,27.00
2012,08,05,00,13,27.00
2012,08,05,00,14,27.00
2012,08,05,00,15,26.90
2012,08,05,00,16,26.90
2012,08,05,00,17,26.90
2012,08,05,00,18,26.80
2012,08,05,00,19,26.80
2012,08,05,00,20,26.80
2012,08,05,00,21,26.70
2012,08,05,00,22,26.70
2012,08,05,00,23,26.70
2012,08,05,00,24,26.60
2012,08,05,00,25,26.60
2012,08,05,00,26,26.60
2012,08,05,00,27,26.50
2012,08,05,00,28,26.50
2012,08,05,00,29,26.50
2012,08,05,00,30,26.50
2012,08,05,00,31,26.50
2012,08,05,00,32,26.40
2012,08,05,00,33,26.40
2012,08,05,00,34,26.40
2012,08,05,00,35,26.40
2012,08,05,00,36,26.50
2012,08,05,00,37,26.50
2012,08,05,00,38,26.50
2012,08,05,00,39,26.50
2012,08,05,00,40,26.50
2012,08,05,00,41,26.50
2012,08,05,00,42,26.60
2012,08,05,00,43,26.60
2012,08,05,00,44,26.60
2012,08,05,00,45,26.60
2012,08,05,00,46,26.50
2012,08,05,00,47,26.50
2012,08,05,00,48,26.50
2012,08,05,00,49,26.60
2012,08,05,00,50,26.60
2012,08,05,00,51,26.60
2012,08,05,00,52,26.60
2012,08,05,00,53,26.60
2012,08,05,00,54,26.60
2012,08,05,00,55,26.60
2012,08,05,00,56,26.60
2012,08,05,00,57,26.50
2012,08,05,00,58,26.50
2012,08,05,00,59,26.40
2012,08,05,01,00,26.40
2012,08,05,01,01,26.40
2012,08,05,01,02,26.30
2012,08,05,01,03,26.30
2012,08,05,01,04,26.30
2012,08,05,01,05,26.30
2012,08,05,01,06,26.20
2012,08,05,01,07,26.10
2012,08,05,01,08,26.10
2012,08,05,01,09,26.10
2012,08,05,01,10,26.00
2012,08,05,01,11,26.00
2012,08,05,01,12,25.90
2012,08,05,01,13,25.90
2012,08,05,01,14,25.90
2012,08,05,01,15,25.90
2012,08,05,01,16,25.90
2012,08,05,01,17,25.90
2012,08,05,01,18,25.80
2012,08,05,01,19,25.60
2012,08,05,01,20,25.60
2012,08,05,01,21,25.50
2012,08,05,01,22,25.40
2012,08,05,01,23,25.30
2012,08,05,01,24,25.20
2012,08,05,01,25,25.10
2012,08,05,01,26,25.00
2012,08,05,01,27,24.80
2012,08,05,01,28,24.70
2012,08,05,01,29,24.60
2012,08,05,01,30,24.50
2012,08,05,01,31,24.50
2012,08,05,01,32,24.40
2012,08,05,01,33,24.30
2012,08,05,01,34,24.30
2012,08,05,01,35,24.30
2012,08,05,01,36,24.20
2012,08,05,01,37,24.20
2012,08,05,01,38,24.20
2012,08,05,01,39,24.20
2012,08,05,01,40,24.10
2012,08,05,01,41,24.10
2012,08,05,01,42,24.10
2012,08,05,01,43,24.10
2012,08,05,01,44,24.10
2012,08,05,01,45,24.10
2012,08,05,01,46,24.10
2012,08,05,01,47,24.10
2012,08,05,01,48,24.10
2012,08,05,01,49,24.10
2012,08,05,01,50,24.10
2012,08,05,01,51,24.10
2012,08,05,01,52,24.10
2012,08,05,01,53,24.10
2012,08,05,01,54,24.10
2012,08,05,01,55,24.10
2012,08,05,01,56,24.10
2012,08,05,01,57,24.10
2012,08,05,01,58,24.10
2012,08,05,01,59,24.10
2012,08,05,02,00,24.20
2012,08,05,02,01,24.20
2012,08,05,02,02,24.10
2012,08,05,02,03,24.10
2012,08,05,02,04,24.10
2012,08,05,02,05,24.10
2012,08,05,02,06,24.00
2012,08,05,02,07,24.00
2012,08,05,02,08,24.00
2012,08,05,02,09,24.00
2012,08,05,02,10,23.90
2012,08,05,02,11,23.90
2012,08,05,02,12,23.90
2012,08,05,02,13,23.90
2012,08,05,02,14,23.90
2012,08,05,02,15,23.80
2012,08,05,02,16,23.80
2012,08,05,02,17,23.80
2012,08,05,02,18,23.80
2012,08,05,02,19,23.70
2012,08,05,02,20,23.70
2012,08,05,02,21,23.70
2012,08,05,02,22,23.70
2012,08,05,02,23,23.70
2012,08,05,02,24,23.70
2012,08,05,02,25,23.70
2012,08,05,02,26,23.60
2012,08,05,02,27,23.60
2012,08,05,02,28,23.60
2012,08,05,02,29,23.60
2012,08,05,02,30,23.60
2012,08,05,02,31,23.60
2012,08,05,02,32,23.60
2012,08,05,02,33,23.60
2012,08,05,02,34,23.60
2012,08,05,02,35,23.60
2012,08,05,02,36,23.60
2012,08,05,02,37,23.70
2012,08,05,02,38,23.70
2012,08,05,02,39,23.80
2012,08,05,02,40,23.80
2012,08,05,02,41,23.80
2012,08,05,02,42,23.80
2012,08,05,02,43,23.80
2012,08,05,02,44,23.80
2012,08,05,02,45,23.70
2012,08,05,02,46,23.70
2012,08,05,02,47,23.60
2012,08,05,02,48,23.50
2012,08,05,02,49,23.50
2012,08,05,02,50,23.40
2012,08,05,02,51,23.40
2012,08,05,02,52,23.40
2012,08,05,02,53,23.30
2012,08,05,02,54,23.30
2012,08,05,02,55,23.30
2012,08,05,02,56,23.30
2012,08,05,02,57,23.30
2012,08,05,02,58,23.20
2012,08,05,02,59,23.20
2012,08,05,03,00,23.20
2012,08,05,03,01,23.20
2012,08,05,03,02,23.10
2012,08,05,03,03,23.10
2012,08,05,03,04,23.10
2012,08,05,03,05,23.10
2012,08,05,03,06,23.10
2012,08,05,03,07,23.10
2012,08,05,03,08,23.00
2012,08,05,03,09,23.00
2012,08,05,03,10,23.00
2012,08,05,03,11,23.00
2012,08,05,03,12,22.90
2012,08,05,03,13,22.90
2012,08,05,03,14,22.90
2012,08,05,03,15,22.90
2012,08,05,03,16,22.90
2012,08,05,03,17,22.90
2012,08,05,03,18,22.90
2012,08,05,03,19,22.90
2012,08,05,03,20,22.90
2012,08,05,03,21,22.90
2012,08,05,03,22,22.90
2012,08,05,03,23,22.80
2012,08,05,03,24,22.80
2012,08,05,03,25,22.80
2012,08,05,03,26,22.80
2012,08,05,03,27,22.80
2012,08,05,03,28,22.80
2012,08,05,03,29,22.80
2012,08,05,03,30,22.80
2012,08,05,03,31,22.80
2012,08,05,03,32,22.80
2012,08,05,03,33,22.80
2012,08,05,03,34,22.80
2012,08,05,03,35,22.70
2012,08,05,03,36,22.70
2012,08,05,03,37,22.70
2012,08,05,03,38,22.70
2012,08,05,03,39,22.70
2012,08,05,03,40,22.70
2012,08,05,03,41,22.70
2012,08,05,03,42,22.70
2012,08,05,03,43,22.70
2012,08,05,03,44,22.70
2012,08,05,03,45,22.70
2012,08,05,03,46,22.70
2012,08,05,03,47,22.70
2012,08,05,03,48,22.70
2012,08,05,03,49,22.70
2012,08,05,03,50,22.70
2012,08,05,03,51,22.60
2012,08,05,03,52,22.60
2012,08,05,03,53,22.70
2012,08,05,03,54,22.70
2012,08,05,03,55,22.70
2012,08,05,03,56,22.70
2012,08,05,03,57,22.70
2012,08,05,03,58,22.70
2012,08,05,03,59,22.70
2012,08,05,04,00,22.70
2012,08,05,04,01,22.70
2012,08,05,04,02,22.70
2012,08,05,04,03,22.70
2012,08,05,04,04,22.80
2012,08,05,04,05,22.80
2012,08,05,04,06,22.80
2012,08,05,04,07,22.80
2012,08,05,04,08,22.80
2012,08,05,04,09,22.80
2012,08,05,04,10,22.80
2012,08,05,04,11,22.80
2012,08,05,04,12,22.80
2012,08,05,04,13,22.80
2012,08,05,04,14,22.80
2012,08,05,04,15,22.70
2012,08,05,04,16,22.70
2012,08,05,04,17,22.70
2012,08,05,04,18,22.60
2012,08,05,04,19,22.60
2012,08,05,04,20,22.50
2012,08,05,04,21,22.50
2012,08,05,04,22,22.40
2012,08,05,04,23,22.40
2012,08,05,04,24,22.30
2012,08,05,04,25,22.30
2012,08,05,04,26,22.30
2012,08,05,04,27,22.30
2012,08,05,04,28,22.30
2012,08,05,04,29,22.30
2012,08,05,04,30,22.20
2012,08,05,04,31,22.20
2012,08,05,04,32,22.20
2012,08,05,04,33,22.20
2012,08,05,04,34,22.20
2012,08,05,04,35,22.20
2012,08,05,04,36,22.20
2012,08,05,04,37,22.20
2012,08,05,04,38,22.20
2012,08,05,04,39,22.20
2012,08,05,04,40,22.20
2012,08,05,04,41,22.20
2012,08,05,04,42,22.20
2012,08,05,04,43,22.20
2012,08,05,04,44,22.20
2012,08,05,04,45,22.10
2012,08,05,04,46,22.10
2012,08,05,04,47,22.10
2012,08,05,04,48,22.10
2012,08,05,04,49,22.10
2012,08,05,04,50,22.20
2012,08,05,04,51,22.10
2012,08,05,04,52,22.10
2012,08,05,04,53,22.10
2012,08,05,04,54,22.10
2012,08,05,04,55,22.00
2012,08,05,04,56,22.00
2012,08,05,04,57,22.00
2012,08,05,04,58,22.10
2012,08,05,04,59,22.10
2012,08,05,05,00,22.20
2012,08,05,05,01,22.20
2012,08,05,05,02,22.20
2012,08,05,05,03,22.20
2012,08,05,05,04,22.20
2012,08,05,05,05,22.20
2012,08,05,05,06,22.20
2012,08,05,05,07,22.20
2012,08,05,05,08,22.20
2012,08,05,05,09,22.20
2012,08,05,05,10,22.20
2012,08,05,05,11,22.20
2012,08,05,05,12,22.20
2012,08,05,05,13,22.10
2012,08,05,05,14,22.20
2012,08,05,05,15,22.10
2012,08,05,05,16,22.10
2012,08,05,05,17,22.10
2012,08,05,05,18,22.00
2012,08,05,05,19,22.00
2012,08,05,05,20,22.00
2012,08,05,05,21,21.90
2012,08,05,05,22,21.90
2012,08,05,05,23,21.90
2012,08,05,05,24,21.90
2012,08,05,05,25,21.90
2012,08,05,05,26,21.90
2012,08,05,05,27,21.80
2012,08,05,05,28,21.80
2012,08,05,05,29,21.70
2012,08,05,05,30,21.70
2012,08,05,05,31,21.70
2012,08,05,05,32,21.70
2012,08,05,05,33,21.70
2012,08,05,05,34,21.70
2012,08,05,05,35,21.70
2012,08,05,05,36,21.70
2012,08,05,05,37,21.80
2012,08,05,05,38,21.80
2012,08,05,05,39,21.80
2012,08,05,05,40,21.80
2012,08,05,05,41,21.80
2012,08,05,05,42,21.80
2012,08,05,05,43,21.80
2012,08,05,05,44,21.80
2012,08,05,05,45,21.80
2012,08,05,05,46,21.80
2012,08,05,05,47,21.70
2012,08,05,05,48,21.70
2012,08,05,05,49,21.70
2012,08,05,05,50,21.70
2012,08,05,05,51,21.70
2012,08,05,05,52,21.60
2012,08,05,05,53,21.60
2012,08,05,05,54,21.60
2012,08,05,05,55,21.60
2012,08,05,05,56,21.60
2012,08,05,05,57,21.50
2012,08,05,05,58,21.50
2012,08,05,05,59,21.40
2012,08,05,06,00,21.40
2012,08,05,06,01,21.30
2012,08,05,06,02,21.30
2012,08,05,06,03,21.30
2012,08,05,06,04,21.30
2012,08,05,06,05,21.40
2012,08,05,06,06,21.40
2012,08,05,06,07,21.40
2012,08,05,06,08,21.40
2012,08,05,06,09,21.40
2012,08,05,06,10,21.40
2012,08,05,06,11,21.40
2012,08,05,06,12,21.40
2012,08,05,06,13,21.40
2012,08,05,06,14,21.40
2012,08,05,06,15,21.40
2012,08,05,06,16,21.40
2012,08,05,06,17,21.40
2012,08,05,06,18,21.30
2012,08,05,06,19,21.30
2012,08,05,06,20,21.30
2012,08,05,06,21,21.30
2012,08,05,06,22,21.30
2012,08,05,06,23,21.30
2012,08,05,06,24,21.40
2012,08,05,06,25,21.40
2012,08,05,06,26,21.40
2012,08,05,06,27,21.40
2012,08,05,06,28,21.40
2012,08,05,06,29,21.40
2012,08,05,06,30,21.40
2012,08,05,06,31,21.40
2012,08,05,06,32,21.40
2012,08,05,06,33,21.40
2012,08,05,06,34,21.30
2012,08,05,06,35,21.30
2012,08,05,06,36,21.20
2012,08,05,06,37,21.20
2012,08,05,06,38,21.20
2012,08,05,06,39,21.10
2012,08,05,06,40,21.10
2012,08,05,06,41,21.00
2012,08,05,06,42,21.00
2012,08,05,06,43,21.00
2012,08,05,06,44,20.90
2012,08,05,06,45,20.90
2012,08,05,06,46,21.00
2012,08,05,06,47,21.00
2012,08,05,06,48,21.10
2012,08,05,06,49,21.20
2012,08,05,06,50,21.20
2012,08,05,06,51,21.30
2012,08,05,06,52,21.40
2012,08,05,06,53,21.50
2012,08,05,06,54,21.60
2012,08,05,06,55,21.70
2012,08,05,06,56,21.80
2012,08,05,06,57,22.00
2012,08,05,06,58,22.10
2012,08,05,06,59,22.10
2012,08,05,07,00,22.10
2012,08,05,07,01,22.20
2012,08,05,07,02,22.20
2012,08,05,07,03,22.20
2012,08,05,07,04,22.20
2012,08,05,07,05,22.30
2012,08,05,07,06,22.30
2012,08,05,07,07,22.30
2012,08,05,07,08,22.30
2012,08,05,07,09,22.40
2012,08,05,07,10,22.50
2012,08,05,07,11,22.50
2012,08,05,07,12,22.60
2012,08,05,07,13,22.60
2012,08,05,07,14,22.60
2012,08,05,07,15,22.70
2012,08,05,07,16,22.70
2012,08,05,07,17,22.70
2012,08,05,07,18,22.70
2012,08,05,07,19,22.80
2012,08,05,07,20,22.80
2012,08,05,07,21,22.80
2012,08,05,07,22,22.80
2012,08,05,07,23,22.90
2012,08,05,07,24,22.90
2012,08,05,07,25,22.90
2012,08,05,07,26,23.00
2012,08,05,07,27,23.00
2012,08,05,07,28,23.00
2012,08,05,07,29,23.00
2012,08,05,07,30,23.10
2012,08,05,07,31,23.20
2012,08,05,07,32,23.20
2012,08,05,07,33,23.20
2012,08,05,07,34,23.20
2012,08,05,07,35,23.10
2012,08,05,07,36,23.10
2012,08,05,07,37,23.00
2012,08,05,07,38,23.00
2012,08,05,07,39,23.00
2012,08,05,07,40,23.10
2012,08,05,07,41,23.10
2012,08,05,07,42,23.10
2012,08,05,07,43,23.10
2012,08,05,07,44,23.10
2012,08,05,07,45,23.00
2012,08,05,07,46,23.00
2012,08,05,07,47,23.00
2012,08,05,07,48,23.00
2012,08,05,07,49,23.00
2012,08,05,07,50,23.10
2012,08,05,07,51,23.10
2012,08,05,07,52,23.20
2012,08,05,07,53,23.20
2012,08,05,07,54,23.20
2012,08,05,07,55,23.30
2012,08,05,07,56,23.30
2012,08,05,07,57,23.30
2012,08,05,07,58,23.30
2012,08,05,07,59,23.30
2012,08,05,08,00,23.30
2012,08,05,08,01,23.30
2012,08,05,08,02,23.40
2012,08,05,08,03,23.50
2012,08,05,08,04,23.50
2012,08,05,08,05,23.60
2012,08,05,08,06,23.60
2012,08,05,08,07,23.60
2012,08,05,08,08,23.60
2012,08,05,08,09,23.60
2012,08,05,08,10,23.70
2012,08,05,08,11,23.70
2012,08,05,08,12,23.70
2012,08,05,08,13,23.80
2012,08,05,08,14,23.80
2012,08,05,08,15,23.80
2012,08,05,08,16,23.80
2012,08,05,08,17,23.80
2012,08,05,08,18,23.80
2012,08,05,08,19,23.90
2012,08,05,08,20,24.00
2012,08,05,08,21,24.00
2012,08,05,08,22,24.10
2012,08,05,08,23,24.10
2012,08,05,08,24,24.10
2012,08,05,08,25,24.10
2012,08,05,08,26,24.10
2012,08,05,08,27,24.20
2012,08,05,08,28,24.20
2012,08,05,08,29,24.20
2012,08,05,08,30,24.20
2012,08,05,08,31,24.20
2012,08,05,08,32,24.20
2012,08,05,08,33,24.30
2012,08,05,08,34,24.30
2012,08,05,08,35,24.40
2012,08,05,08,36,24.40
2012,08,05,08,37,24.40
2012,08,05,08,38,24.40
2012,08,05,08,39,24.40
2012,08,05,08,40,24.50
2012,08,05,08,41,24.50
2012,08,05,08,42,24.60
2012,08,05,08,43,24.70
2012,08,05,08,44,24.70
2012,08,05,08,45,24.70
2012,08,05,08,46,24.80
2012,08,05,08,47,24.80
2012,08,05,08,48,24.80
2012,08,05,08,49,24.80
2012,08,05,08,50,24.80
2012,08,05,08,51,24.80
2012,08,05,08,52,24.80
2012,08,05,08,53,24.80
2012,08,05,08,54,24.80
2012,08,05,08,55,24.80
2012,08,05,08,56,24.90
2012,08,05,08,57,24.90
2012,08,05,08,58,24.90
2012,08,05,08,59,24.90
2012,08,05,09,00,24.90
2012,08,05,09,01,25.00
2012,08,05,09,02,25.10
2012,08,05,09,03,25.10
2012,08,05,09,04,25.20
2012,08,05,09,05,25.20
2012,08,05,09,06,25.30
2012,08,05,09,07,25.30
2012,08,05,09,08,25.40
2012,08,05,09,09,25.50
2012,08,05,09,10,25.60
2012,08,05,09,11,25.60
2012,08,05,09,12,25.70
2012,08,05,09,13,25.70
2012,08,05,09,14,25.70
2012,08,05,09,15,25.70
2012,08,05,09,16,25.70
2012,08,05,09,17,25.70
2012,08,05,09,18,25.70
2012,08,05,09,19,25.70
2012,08,05,09,20,25.70
2012,08,05,09,21,25.70
2012,08,05,09,22,25.70
2012,08,05,09,23,25.80
2012,08,05,09,24,25.80
2012,08,05,09,25,25.90
2012,08,05,09,26,25.90
2012,08,05,09,27,26.00
2012,08,05,09,28,26.10
2012,08,05,09,29,26.20
2012,08,05,09,30,26.30
2012,08,05,09,31,26.30
2012,08,05,09,32,26.30
2012,08,05,09,33,26.30
2012,08,05,09,34,26.40
2012,08,05,09,35,26.40
2012,08,05,09,36,26.40
2012,08,05,09,37,26.50
2012,08,05,09,38,26.50
2012,08,05,09,39,26.50
2012,08,05,09,40,26.50
2012,08,05,09,41,26.60
2012,08,05,09,42,26.60
2012,08,05,09,43,26.60
2012,08,05,09,44,26.60
2012,08,05,09,45,26.60
2012,08,05,09,46,26.60
2012,08,05,09,47,26.60
2012,08,05,09,48,26.70
2012,08,05,09,49,26.60
2012,08,05,09,50,26.60
2012,08,05,09,51,26.60
2012,08,05,09,52,26.70
2012,08,05,09,53,26.70
2012,08,05,09,54,26.70
2012,08,05,09,55,26.70
2012,08,05,09,56,26.70
2012,08,05,09,57,26.70
2012,08,05,09,58,26.70
2012,08,05,09,59,26.70
2012,08,05,10,00,26.80
2012,08,05,10,01,26.80
2012,08,05,10,02,26.80
2012,08,05,10,03,26.80
2012,08,05,10,04,26.80
2012,08,05,10,05,26.80
2012,08,05,10,06,26.80
2012,08,05,10,07,26.70
2012,08,05,10,08,26.80
2012,08,05,10,09,26.80
2012,08,05,10,10,26.90
2012,08,05,10,11,26.90
2012,08,05,10,12,27.00
2012,08,05,10,13,27.00
2012,08,05,10,14,27.00
2012,08,05,10,15,27.00
2012,08,05,10,16,27.00
2012,08,05,10,17,27.00
2012,08,05,10,18,27.10
2012,08,05,10,19,27.10
2012,08,05,10,20,27.10
2012,08,05,10,21,27.10
2012,08,05,10,22,27.20
2012,08,05,10,23,27.30
2012,08,05,10,24,27.40
2012,08,05,10,25,27.50
2012,08,05,10,26,27.60
2012,08,05,10,27,27.70
2012,08,05,10,28,27.70
2012,08,05,10,29,27.70
2012,08,05,10,30,27.80
2012,08,05,10,31,27.80
2012,08,05,10,32,27.80
2012,08,05,10,33,27.80
2012,08,05,10,34,27.80
2012,08,05,10,35,27.80
2012,08,05,10,36,27.80
2012,08,05,10,37,27.80
2012,08,05,10,38,27.90
2012,08,05,10,39,27.90
2012,08,05,10,40,27.90
2012,08,05,10,41,27.90
2012,08,05,10,42,27.90
2012,08,05,10,43,27.90
2012,08,05,10,44,27.90
2012,08,05,10,45,27.80
2012,08,05,10,46,27.80
2012,08,05,10,47,27.70
2012,08,05,10,48,27.70
2012,08,05,10,49,27.70
2012,08,05,10,50,27.70
2012,08,05,10,51,27.70
2012,08,05,10,52,27.70
2012,08,05,10,53,27.80
2012,08,05,10,54,27.90
2012,08,05,10,55,27.90
2012,08,05,10,56,28.00
2012,08,05,10,57,28.10
2012,08,05,10,58,28.20
2012,08,05,10,59,28.20
2012,08,05,11,00,28.20
2012,08,05,11,01,28.10
2012,08,05,11,02,28.00
2012,08,05,11,03,28.00
2012,08,05,11,04,28.00
2012,08,05,11,05,28.00
2012,08,05,11,06,28.00
2012,08,05,11,07,27.90
2012,08,05,11,08,27.80
2012,08,05,11,09,27.70
2012,08,05,11,10,27.60
2012,08,05,11,11,27.50
2012,08,05,11,12,27.40
2012,08,05,11,13,27.40
2012,08,05,11,14,27.40
2012,08,05,11,15,27.40
2012,08,05,11,16,27.40
2012,08,05,11,17,27.30
2012,08,05,11,18,27.30
2012,08,05,11,19,27.30
2012,08,05,11,20,27.30
2012,08,05,11,21,27.40
2012,08,05,11,22,27.50
2012,08,05,11,23,27.60
2012,08,05,11,24,27.60
2012,08,05,11,25,27.60
2012,08,05,11,26,27.70
2012,08,05,11,27,27.80
2012,08,05,11,28,27.90
2012,08,05,11,29,27.90
2012,08,05,11,30,28.00
2012,08,05,11,31,28.10
2012,08,05,11,32,28.10
2012,08,05,11,33,28.10
2012,08,05,11,34,28.20
2012,08,05,11,35,28.30
2012,08,05,11,36,28.30
2012,08,05,11,37,28.30
2012,08,05,11,38,28.40
2012,08,05,11,39,28.50
2012,08,05,11,40,28.50
2012,08,05,11,41,28.60
2012,08,05,11,42,28.50
2012,08,05,11,43,28.50
2012,08,05,11,44,28.40
2012,08,05,11,45,28.40
2012,08,05,11,46,28.40
2012,08,05,11,47,28.40
2012,08,05,11,48,28.40
2012,08,05,11,49,28.40
2012,08,05,11,50,28.30
2012,08,05,11,51,28.30
2012,08,05,11,52,28.30
2012,08,05,11,53,28.30
2012,08,05,11,54,28.40
2012,08,05,11,55,28.40
2012,08,05,11,56,28.40
2012,08,05,11,57,28.60
2012,08,05,11,58,28.70
2012,08,05,11,59,28.80
2012,08,05,12,00,28.80
2012,08,05,12,01,28.90
2012,08,05,12,02,29.00
2012,08,05,12,03,29.20
2012,08,05,12,04,29.20
2012,08,05,12,05,29.30
2012,08,05,12,06,29.30
2012,08,05,12,07,29.20
2012,08,05,12,08,29.20
2012,08,05,12,09,29.20
2012,08,05,12,10,29.30
2012,08,05,12,11,29.30
2012,08,05,12,12,29.40
2012,08,05,12,13,29.40
2012,08,05,12,14,29.40
2012,08,05,12,15,29.40
2012,08,05,12,16,29.40
2012,08,05,12,17,29.40
2012,08,05,12,18,29.40
2012,08,05,12,19,29.30
2012,08,05,12,20,29.30
2012,08,05,12,21,29.40
2012,08,05,12,22,29.40
2012,08,05,12,23,29.40
2012,08,05,12,24,29.40
2012,08,05,12,25,29.40
2012,08,05,12,26,29.40
2012,08,05,12,27,29.40
2012,08,05,12,28,29.40
2012,08,05,12,29,29.40
2012,08,05,12,30,29.40
2012,08,05,12,31,29.40
2012,08,05,12,32,29.40
2012,08,05,12,33,29.30
2012,08,05,12,34,29.20
2012,08,05,12,35,29.20
2012,08,05,12,36,29.30
2012,08,05,12,37,29.30
2012,08,05,12,38,29.30
2012,08,05,12,39,29.30
2012,08,05,12,40,29.40
2012,08,05,12,41,29.50
2012,08,05,12,42,29.70
2012,08,05,12,43,29.80
2012,08,05,12,44,30.00
2012,08,05,12,45,30.10
2012,08,05,12,46,30.20
2012,08,05,12,47,30.30
2012,08,05,12,48,30.40
2012,08,05,12,49,30.50
2012,08,05,12,50,30.60
2012,08,05,12,51,30.60
2012,08,05,12,52,30.70
2012,08,05,12,53,30.70
2012,08,05,12,54,30.70
2012,08,05,12,55,30.80
2012,08,05,12,56,30.90
2012,08,05,12,57,30.90
2012,08,05,12,58,30.90
2012,08,05,12,59,30.90
2012,08,05,13,00,30.80
2012,08,05,13,01,30.70
2012,08,05,13,02,30.60
2012,08,05,13,03,30.40
2012,08,05,13,04,30.30
2012,08,05,13,05,30.30
2012,08,05,13,06,30.20
2012,08,05,13,07,30.20
2012,08,05,13,08,30.30
2012,08,05,13,09,30.40
2012,08,05,13,10,30.60
2012,08,05,13,11,30.60
2012,08,05,13,12,30.70
2012,08,05,13,13,30.70
2012,08,05,13,14,30.70
2012,08,05,13,15,30.70
2012,08,05,13,16,30.60
2012,08,05,13,17,30.50
2012,08,05,13,18,30.40
2012,08,05,13,19,30.40
2012,08,05,13,20,30.40
2012,08,05,13,21,30.40
2012,08,05,13,22,30.40
2012,08,05,13,23,30.40
2012,08,05,13,24,30.40
2012,08,05,13,25,30.40
2012,08,05,13,26,30.40
2012,08,05,13,27,30.30
2012,08,05,13,28,30.20
2012,08,05,13,29,30.20
2012,08,05,13,30,30.10
2012,08,05,13,31,30.10
2012,08,05,13,32,30.10
2012,08,05,13,33,30.10
2012,08,05,13,34,30.10
2012,08,05,13,35,30.00
2012,08,05,13,36,29.90
2012,08,05,13,37,29.80
2012,08,05,13,38,29.80
2012,08,05,13,39,29.80
2012,08,05,13,40,29.90
2012,08,05,13,41,30.00
2012,08,05,13,42,30.00
2012,08,05,13,43,30.10
2012,08,05,13,44,30.10
2012,08,05,13,45,30.20
2012,08,05,13,46,30.20
2012,08,05,13,47,30.20
2012,08,05,13,48,30.30
2012,08,05,13,49,30.30
2012,08,05,13,50,30.40
2012,08,05,13,51,30.40
2012,08,05,13,52,30.50
2012,08,05,13,53,30.50
2012,08,05,13,54,30.40
2012,08,05,13,55,30.40
2012,08,05,13,56,30.30
2012,08,05,13,57,30.30
2012,08,05,13,58,30.40
2012,08,05,13,59,30.40
2012,08,05,14,00,30.40
2012,08,05,14,01,30.40
2012,08,05,14,02,30.40
2012,08,05,14,03,30.40
2012,08,05,14,04,30.40
2012,08,05,14,05,30.30
2012,08,05,14,06,30.40
2012,08,05,14,07,30.40
2012,08,05,14,08,30.50
2012,08,05,14,09,30.50
2012,08,05,14,10,30.60
2012,08,05,14,11,30.60
2012,08,05,14,12,30.60
2012,08,05,14,13,30.70
2012,08,05,14,14,30.80
2012,08,05,14,15,30.90
2012,08,05,14,16,31.00
2012,08,05,14,17,31.00
2012,08,05,14,18,31.10
2012,08,05,14,19,31.10
2012,08,05,14,20,31.10
2012,08,05,14,21,31.10
2012,08,05,14,22,31.10
2012,08,05,14,23,31.10
2012,08,05,14,24,31.10
2012,08,05,14,25,31.10
2012,08,05,14,26,31.10
2012,08,05,14,27,31.10
2012,08,05,14,28,31.10
2012,08,05,14,29,31.20
2012,08,05,14,30,31.20
2012,08,05,14,31,31.30
2012,08,05,14,32,31.30
2012,08,05,14,33,31.30
2012,08,05,14,34,31.30
2012,08,05,14,35,31.30
2012,08,05,14,36,31.30
2012,08,05,14,37,31.10
2012,08,05,14,38,31.00
2012,08,05,14,39,30.90
2012,08,05,14,40,30.90
2012,08,05,14,41,30.90
2012,08,05,14,42,30.90
2012,08,05,14,43,30.80
2012,08,05,14,44,30.80
2012,08,05,14,45,30.80
2012,08,05,14,46,30.80
2012,08,05,14,47,30.90
2012,08,05,14,48,31.00
2012,08,05,14,49,31.00
2012,08,05,14,50,31.10
2012,08,05,14,51,31.10
2012,08,05,14,52,31.00
2012,08,05,14,53,31.00
2012,08,05,14,54,30.90
2012,08,05,14,55,30.90
2012,08,05,14,56,30.80
2012,08,05,14,57,30.80
2012,08,05,14,58,30.70
2012,08,05,14,59,30.60
2012,08,05,15,00,30.60
2012,08,05,15,01,30.50
2012,08,05,15,02,30.60
2012,08,05,15,03,30.60
2012,08,05,15,04,30.60
2012,08,05,15,05,30.70
2012,08,05,15,06,30.70
2012,08,05,15,07,30.80
2012,08,05,15,08,30.80
2012,08,05,15,09,30.90
2012,08,05,15,10,31.00
2012,08,05,15,11,31.00
2012,08,05,15,12,30.90
2012,08,05,15,13,30.90
2012,08,05,15,14,30.90
2012,08,05,15,15,30.90
2012,08,05,15,16,30.90
2012,08,05,15,17,31.00
2012,08,05,15,18,31.10
2012,08,05,15,19,31.00
2012,08,05,15,20,30.90
2012,08,05,15,21,30.80
2012,08,05,15,22,30.80
2012,08,05,15,23,30.70
2012,08,05,15,24,30.70
2012,08,05,15,25,30.80
2012,08,05,15,26,30.80
2012,08,05,15,27,30.90
2012,08,05,15,28,30.90
2012,08,05,15,29,31.00
2012,08,05,15,30,30.90
2012,08,05,15,31,30.80
2012,08,05,15,32,30.80
2012,08,05,15,33,30.70
2012,08,05,15,34,30.50
2012,08,05,15,35,30.40
2012,08,05,15,36,30.30
2012,08,05,15,37,30.20
2012,08,05,15,38,30.20
2012,08,05,15,39,30.10
2012,08,05,15,40,30.20
2012,08,05,15,41,30.20
2012,08,05,15,42,30.20
2012,08,05,15,43,30.30
2012,08,05,15,44,30.30
2012,08,05,15,45,30.20
2012,08,05,15,46,30.10
2012,08,05,15,47,30.00
2012,08,05,15,48,29.90
2012,08,05,15,49,29.80
2012,08,05,15,50,29.70
2012,08,05,15,51,29.60
2012,08,05,15,52,29.50
2012,08,05,15,53,29.50
2012,08,05,15,54,29.40
2012,08,05,15,55,29.30
2012,08,05,15,56,29.20
2012,08,05,15,57,29.10
2012,08,05,15,58,29.10
2012,08,05,15,59,29.00
2012,08,05,16,00,28.90
2012,08,05,16,01,28.90
2012,08,05,16,02,28.90
2012,08,05,16,03,29.00
2012,08,05,16,04,29.10
2012,08,05,16,05,29.10
2012,08,05,16,06,29.10
2012,08,05,16,07,29.00
2012,08,05,16,08,28.80
2012,08,05,16,09,28.80
2012,08,05,16,10,28.80
2012,08,05,16,11,28.90
2012,08,05,16,12,29.00
2012,08,05,16,13,29.00
2012,08,05,16,14,28.90
2012,08,05,16,15,28.80
2012,08,05,16,16,28.80
2012,08,05,16,17,28.70
2012,08,05,16,18,28.80
2012,08,05,16,19,28.80
2012,08,05,16,20,28.80
2012,08,05,16,21,28.80
2012,08,05,16,22,28.80
2012,08,05,16,23,28.80
2012,08,05,16,24,28.80
2012,08,05,16,25,28.80
2012,08,05,16,26,28.80
2012,08,05,16,27,28.80
2012,08,05,16,28,28.70
2012,08,05,16,29,28.70
2012,08,05,16,30,28.80
2012,08,05,16,31,28.90
2012,08,05,16,32,28.90
2012,08,05,16,33,29.00
2012,08,05,16,34,29.10
2012,08,05,16,35,29.10
2012,08,05,16,36,29.20
2012,08,05,16,37,29.30
2012,08,05,16,38,29.30
2012,08,05,16,39,29.30
2012,08,05,16,40,29.30
2012,08,05,16,41,29.30
2012,08,05,16,42,29.40
2012,08,05,16,43,29.50
2012,08,05,16,44,29.60
2012,08,05,16,45,29.60
2012,08,05,16,46,29.60
2012,08,05,16,47,29.50
2012,08,05,16,48,29.40
2012,08,05,16,49,29.40
2012,08,05,16,50,29.30
2012,08,05,16,51,29.30
2012,08,05,16,52,29.30
2012,08,05,16,53,29.30
2012,08,05,16,54,29.40
2012,08,05,16,55,29.40
2012,08,05,16,56,29.50
2012,08,05,16,57,29.60
2012,08,05,16,58,29.50
2012,08,05,16,59,29.40
2012,08,05,17,00,29.40
2012,08,05,17,01,29.40
2012,08,05,17,02,29.40
2012,08,05,17,03,29.40
2012,08,05,17,04,29.30
2012,08,05,17,05,29.30
2012,08,05,17,06,29.30
2012,08,05,17,07,29.30
2012,08,05,17,08,29.30
2012,08,05,17,09,29.30
2012,08,05,17,10,29.40
2012,08,05,17,11,29.50
2012,08,05,17,12,29.60
2012,08,05,17,13,29.60
2012,08,05,17,14,29.60
2012,08,05,17,15,29.70
2012,08,05,17,16,29.70
2012,08,05,17,17,29.80
2012,08,05,17,18,29.80
2012,08,05,17,19,29.80